Find Starlink 30519

NORAD ID: 57985 Int'l Des: 2023-151 Owner: SPXS Country: US Constellation: starlink operational
LEOCIRCULAR

实时位置

正在加载3D地球...

关于 Starlink 30519

正在加载描述...

即将过境

Passes for default location (London). Set your location on the main map for personalized predictions.

高度历史

Loading altitude history...

两行轨道根数

1 57985U 23151X 26119.24936205 -.00004179 00000-0 -14233-3 0 9995
2 57985 43.0061 65.3299 0001490 267.2512 92.8170 15.27599113143269
Epoch: Apr 29, 2026 • Age: 15 hours

当前状态

高度 483.2 km
速度 7.63 km/s
星下点 22.90°N, 46.15°E
发射日期 Sep 30, 2023
运行时间 2.5 years
类型 internet

技术详情

分类 Payload
质量 730.00 kg
干质量 700.00 kg
总质量 730.00 kg
长度 0.30 m
直径 4.10 m
跨度 29.00 m
形状 Box + pan
制造商 SPXS
平台类型 Starlink V2M
阶段状态 In Orbit
所有者/国家 SPXS/US

Most Searched